Location: Culleoka
(33.1312°N, 96.4919°W)
Time: 08:47:58
(UTC+00:00)

H-2A R/B - Pass Details

Date: 02 July 2022
Orbit: 576 x 652 km, 98.5° (Epoch: 13 August)

Event Time Altitude Azimuth Distance (km) Brightness Sun altitude
Rises 02:54:41 0° 7° (N) 2,936 6.0 -13.9°
Reaches altitude 10° 02:56:54 10° 4° (N) 2,033 5.2 -14.3°
Maximum altitude 03:01:15 58° 286° (WNW) 756 2.8 -15.0°
Drops below altitude 10° 03:05:38 10° 207° (SSW) 2,046 4.6 -15.7°
Sets 03:07:53 0° 203° (SSW) 2,956 5.4 -16.0°
